<?xml version="1.0"?>
<gpx xmlns="http://www.topografix.com/GPX/1/1" xmlns:xsi="http://www.w3.org/2001/XMLSchema-instance" version="1.1" creator="GPX RubyGem 1.0.0 -- http://dougfales.github.io/gpx/" xsi:schemaLocation="http://www.topografix.com/GPX/1/1 http://www.topografix.com/GPX/1/1/gpx.xsd">
  <metadata>
    <name/>
    <time>2026-05-07T23:10:19+00:00</time>
    <bound minlat="90.0" minlon="180.0" maxlat="-90.0" maxlon="-180.0"/>
  </metadata>
  <trk>
    <name/>
    <trkseg>
      <trkpt lat="45.79759" lon="6.171272">
        <time>1970-01-01T00:00:00+00:00</time>
        <ele>1019.0</ele>
      </trkpt>
      <trkpt lat="45.797594" lon="6.171306">
        <time>1970-01-01T00:00:00+00:00</time>
        <ele>1020.0</ele>
      </trkpt>
      <trkpt lat="45.797608" lon="6.171738">
        <time>1970-01-01T00:00:00+00:00</time>
        <ele>1026.0</ele>
      </trkpt>
      <trkpt lat="45.797547" lon="6.172057">
        <time>1970-01-01T00:00:00+00:00</time>
        <ele>1034.0</ele>
      </trkpt>
      <trkpt lat="45.797439" lon="6.172217">
        <time>1970-01-01T00:00:00+00:00</time>
        <ele>1038.0</ele>
      </trkpt>
      <trkpt lat="45.797175" lon="6.172548">
        <time>1970-01-01T00:00:00+00:00</time>
        <ele>1049.0</ele>
      </trkpt>
      <trkpt lat="45.796956" lon="6.172682">
        <time>1970-01-01T00:00:00+00:00</time>
        <ele>1055.0</ele>
      </trkpt>
      <trkpt lat="45.796829" lon="6.172789">
        <time>1970-01-01T00:00:00+00:00</time>
        <ele>1060.0</ele>
      </trkpt>
      <trkpt lat="45.796367" lon="6.173108">
        <time>1970-01-01T00:00:00+00:00</time>
        <ele>1070.0</ele>
      </trkpt>
      <trkpt lat="45.796311" lon="6.173215">
        <time>1970-01-01T00:00:00+00:00</time>
        <ele>1074.0</ele>
      </trkpt>
      <trkpt lat="45.796286" lon="6.173347">
        <time>1970-01-01T00:00:00+00:00</time>
        <ele>1080.0</ele>
      </trkpt>
      <trkpt lat="45.796161" lon="6.173551">
        <time>1970-01-01T00:00:00+00:00</time>
        <ele>1091.0</ele>
      </trkpt>
      <trkpt lat="45.796118" lon="6.173583">
        <time>1970-01-01T00:00:00+00:00</time>
        <ele>1092.0</ele>
      </trkpt>
      <trkpt lat="45.795926" lon="6.17362">
        <time>1970-01-01T00:00:00+00:00</time>
        <ele>1093.0</ele>
      </trkpt>
      <trkpt lat="45.795746" lon="6.173711">
        <time>1970-01-01T00:00:00+00:00</time>
        <ele>1097.0</ele>
      </trkpt>
      <trkpt lat="45.795568" lon="6.173746">
        <time>1970-01-01T00:00:00+00:00</time>
        <ele>1100.0</ele>
      </trkpt>
      <trkpt lat="45.795454" lon="6.173741">
        <time>1970-01-01T00:00:00+00:00</time>
        <ele>1103.0</ele>
      </trkpt>
      <trkpt lat="45.795318" lon="6.17369">
        <time>1970-01-01T00:00:00+00:00</time>
        <ele>1106.0</ele>
      </trkpt>
      <trkpt lat="45.795148" lon="6.17358">
        <time>1970-01-01T00:00:00+00:00</time>
        <ele>1106.0</ele>
      </trkpt>
      <trkpt lat="45.795011" lon="6.173655">
        <time>1970-01-01T00:00:00+00:00</time>
        <ele>1111.0</ele>
      </trkpt>
      <trkpt lat="45.794916" lon="6.173631">
        <time>1970-01-01T00:00:00+00:00</time>
        <ele>1113.0</ele>
      </trkpt>
      <trkpt lat="45.794828" lon="6.17358">
        <time>1970-01-01T00:00:00+00:00</time>
        <ele>1115.0</ele>
      </trkpt>
      <trkpt lat="45.794508" lon="6.173325">
        <time>1970-01-01T00:00:00+00:00</time>
        <ele>1124.0</ele>
      </trkpt>
      <trkpt lat="45.794115" lon="6.173135">
        <time>1970-01-01T00:00:00+00:00</time>
        <ele>1132.0</ele>
      </trkpt>
      <trkpt lat="45.793874" lon="6.17299">
        <time>1970-01-01T00:00:00+00:00</time>
        <ele>1132.0</ele>
      </trkpt>
      <trkpt lat="45.793734" lon="6.172993">
        <time>1970-01-01T00:00:00+00:00</time>
        <ele>1134.0</ele>
      </trkpt>
      <trkpt lat="45.793653" lon="6.173046">
        <time>1970-01-01T00:00:00+00:00</time>
        <ele>1136.0</ele>
      </trkpt>
      <trkpt lat="45.793608" lon="6.173033">
        <time>1970-01-01T00:00:00+00:00</time>
        <ele>1138.0</ele>
      </trkpt>
      <trkpt lat="45.793524" lon="6.172977">
        <time>1970-01-01T00:00:00+00:00</time>
        <ele>1139.0</ele>
      </trkpt>
      <trkpt lat="45.793418" lon="6.172845">
        <time>1970-01-01T00:00:00+00:00</time>
        <ele>1139.0</ele>
      </trkpt>
      <trkpt lat="45.793332" lon="6.172802">
        <time>1970-01-01T00:00:00+00:00</time>
        <ele>1138.0</ele>
      </trkpt>
      <trkpt lat="45.793051" lon="6.172894">
        <time>1970-01-01T00:00:00+00:00</time>
        <ele>1144.0</ele>
      </trkpt>
      <trkpt lat="45.792859" lon="6.173062">
        <time>1970-01-01T00:00:00+00:00</time>
        <ele>1155.0</ele>
      </trkpt>
      <trkpt lat="45.792765" lon="6.173089">
        <time>1970-01-01T00:00:00+00:00</time>
        <ele>1159.0</ele>
      </trkpt>
      <trkpt lat="45.792593" lon="6.172974">
        <time>1970-01-01T00:00:00+00:00</time>
        <ele>1162.0</ele>
      </trkpt>
      <trkpt lat="45.792477" lon="6.172861">
        <time>1970-01-01T00:00:00+00:00</time>
        <ele>1163.0</ele>
      </trkpt>
      <trkpt lat="45.792215" lon="6.17266">
        <time>1970-01-01T00:00:00+00:00</time>
        <ele>1165.0</ele>
      </trkpt>
      <trkpt lat="45.792124" lon="6.172631">
        <time>1970-01-01T00:00:00+00:00</time>
        <ele>1166.0</ele>
      </trkpt>
      <trkpt lat="45.792032" lon="6.172666">
        <time>1970-01-01T00:00:00+00:00</time>
        <ele>1167.0</ele>
      </trkpt>
      <trkpt lat="45.791714" lon="6.172912">
        <time>1970-01-01T00:00:00+00:00</time>
        <ele>1181.0</ele>
      </trkpt>
      <trkpt lat="45.791138" lon="6.172987">
        <time>1970-01-01T00:00:00+00:00</time>
        <ele>1195.0</ele>
      </trkpt>
      <trkpt lat="45.791044" lon="6.172966">
        <time>1970-01-01T00:00:00+00:00</time>
        <ele>1197.0</ele>
      </trkpt>
      <trkpt lat="45.790955" lon="6.172928">
        <time>1970-01-01T00:00:00+00:00</time>
        <ele>1198.0</ele>
      </trkpt>
      <trkpt lat="45.790876" lon="6.172856">
        <time>1970-01-01T00:00:00+00:00</time>
        <ele>1199.0</ele>
      </trkpt>
      <trkpt lat="45.790783" lon="6.172808">
        <time>1970-01-01T00:00:00+00:00</time>
        <ele>1200.0</ele>
      </trkpt>
      <trkpt lat="45.79027" lon="6.172623">
        <time>1970-01-01T00:00:00+00:00</time>
        <ele>1210.0</ele>
      </trkpt>
      <trkpt lat="45.790164" lon="6.172561">
        <time>1970-01-01T00:00:00+00:00</time>
        <ele>1211.0</ele>
      </trkpt>
      <trkpt lat="45.789948" lon="6.172502">
        <time>1970-01-01T00:00:00+00:00</time>
        <ele>1217.0</ele>
      </trkpt>
      <trkpt lat="45.789831" lon="6.172499">
        <time>1970-01-01T00:00:00+00:00</time>
        <ele>1221.0</ele>
      </trkpt>
      <trkpt lat="45.789653" lon="6.172413">
        <time>1970-01-01T00:00:00+00:00</time>
        <ele>1225.0</ele>
      </trkpt>
      <trkpt lat="45.789573" lon="6.172349">
        <time>1970-01-01T00:00:00+00:00</time>
        <ele>1228.0</ele>
      </trkpt>
      <trkpt lat="45.789197" lon="6.17167">
        <time>1970-01-01T00:00:00+00:00</time>
        <ele>1243.0</ele>
      </trkpt>
      <trkpt lat="45.789034" lon="6.171528">
        <time>1970-01-01T00:00:00+00:00</time>
        <ele>1243.0</ele>
      </trkpt>
      <trkpt lat="45.788918" lon="6.171493">
        <time>1970-01-01T00:00:00+00:00</time>
        <ele>1244.0</ele>
      </trkpt>
      <trkpt lat="45.788581" lon="6.171475">
        <time>1970-01-01T00:00:00+00:00</time>
        <ele>1254.0</ele>
      </trkpt>
      <trkpt lat="45.788226" lon="6.171284">
        <time>1970-01-01T00:00:00+00:00</time>
        <ele>1262.0</ele>
      </trkpt>
      <trkpt lat="45.787899" lon="6.17118">
        <time>1970-01-01T00:00:00+00:00</time>
        <ele>1269.0</ele>
      </trkpt>
      <trkpt lat="45.787609" lon="6.171139">
        <time>1970-01-01T00:00:00+00:00</time>
        <ele>1274.0</ele>
      </trkpt>
      <trkpt lat="45.787412" lon="6.171185">
        <time>1970-01-01T00:00:00+00:00</time>
        <ele>1279.0</ele>
      </trkpt>
      <trkpt lat="45.787139" lon="6.171314">
        <time>1970-01-01T00:00:00+00:00</time>
        <ele>1290.0</ele>
      </trkpt>
      <trkpt lat="45.787001" lon="6.171338">
        <time>1970-01-01T00:00:00+00:00</time>
        <ele>1295.0</ele>
      </trkpt>
      <trkpt lat="45.786905" lon="6.17133">
        <time>1970-01-01T00:00:00+00:00</time>
        <ele>1299.0</ele>
      </trkpt>
      <trkpt lat="45.786862" lon="6.171311">
        <time>1970-01-01T00:00:00+00:00</time>
        <ele>1300.0</ele>
      </trkpt>
      <trkpt lat="45.786799" lon="6.171214">
        <time>1970-01-01T00:00:00+00:00</time>
        <ele>1297.0</ele>
      </trkpt>
      <trkpt lat="45.786501" lon="6.170933">
        <time>1970-01-01T00:00:00+00:00</time>
        <ele>1303.0</ele>
      </trkpt>
      <trkpt lat="45.786329" lon="6.170839">
        <time>1970-01-01T00:00:00+00:00</time>
        <ele>1307.0</ele>
      </trkpt>
      <trkpt lat="45.786041" lon="6.170788">
        <time>1970-01-01T00:00:00+00:00</time>
        <ele>1313.0</ele>
      </trkpt>
      <trkpt lat="45.785778" lon="6.170844">
        <time>1970-01-01T00:00:00+00:00</time>
        <ele>1319.0</ele>
      </trkpt>
      <trkpt lat="45.785682" lon="6.170847">
        <time>1970-01-01T00:00:00+00:00</time>
        <ele>1319.0</ele>
      </trkpt>
      <trkpt lat="45.785278" lon="6.171051">
        <time>1970-01-01T00:00:00+00:00</time>
        <ele>1327.0</ele>
      </trkpt>
      <trkpt lat="45.785086" lon="6.171064">
        <time>1970-01-01T00:00:00+00:00</time>
        <ele>1330.0</ele>
      </trkpt>
      <trkpt lat="45.784951" lon="6.171123">
        <time>1970-01-01T00:00:00+00:00</time>
        <ele>1335.0</ele>
      </trkpt>
      <trkpt lat="45.784857" lon="6.171129">
        <time>1970-01-01T00:00:00+00:00</time>
        <ele>1337.0</ele>
      </trkpt>
      <trkpt lat="45.784698" lon="6.171003">
        <time>1970-01-01T00:00:00+00:00</time>
        <ele>1341.0</ele>
      </trkpt>
      <trkpt lat="45.784652" lon="6.171019">
        <time>1970-01-01T00:00:00+00:00</time>
        <ele>1345.0</ele>
      </trkpt>
      <trkpt lat="45.785021" lon="6.171556">
        <time>1970-01-01T00:00:00+00:00</time>
        <ele>1356.0</ele>
      </trkpt>
      <trkpt lat="45.785548" lon="6.171786">
        <time>1970-01-01T00:00:00+00:00</time>
        <ele>1366.0</ele>
      </trkpt>
      <trkpt lat="45.785873" lon="6.17215">
        <time>1970-01-01T00:00:00+00:00</time>
        <ele>1377.0</ele>
      </trkpt>
      <trkpt lat="45.784463" lon="6.17228">
        <time>1970-01-01T00:00:00+00:00</time>
        <ele>1407.0</ele>
      </trkpt>
      <trkpt lat="45.784243" lon="6.172135">
        <time>1970-01-01T00:00:00+00:00</time>
        <ele>1414.0</ele>
      </trkpt>
      <trkpt lat="45.783918" lon="6.171754">
        <time>1970-01-01T00:00:00+00:00</time>
        <ele>1419.0</ele>
      </trkpt>
      <trkpt lat="45.78367" lon="6.171535">
        <time>1970-01-01T00:00:00+00:00</time>
        <ele>1424.0</ele>
      </trkpt>
      <trkpt lat="45.782612" lon="6.170794">
        <time>1970-01-01T00:00:00+00:00</time>
        <ele>1410.0</ele>
      </trkpt>
      <trkpt lat="45.781762" lon="6.170746">
        <time>1970-01-01T00:00:00+00:00</time>
        <ele>1411.0</ele>
      </trkpt>
      <trkpt lat="45.781122" lon="6.170624">
        <time>1970-01-01T00:00:00+00:00</time>
        <ele>1411.0</ele>
      </trkpt>
      <trkpt lat="45.78033" lon="6.170732">
        <time>1970-01-01T00:00:00+00:00</time>
        <ele>1422.0</ele>
      </trkpt>
      <trkpt lat="45.779228" lon="6.170922">
        <time>1970-01-01T00:00:00+00:00</time>
        <ele>1455.0</ele>
      </trkpt>
      <trkpt lat="45.778691" lon="6.170827">
        <time>1970-01-01T00:00:00+00:00</time>
        <ele>1470.0</ele>
      </trkpt>
      <trkpt lat="45.777763" lon="6.170712">
        <time>1970-01-01T00:00:00+00:00</time>
        <ele>1474.0</ele>
      </trkpt>
      <trkpt lat="45.778556" lon="6.17126">
        <time>1970-01-01T00:00:00+00:00</time>
        <ele>1498.0</ele>
      </trkpt>
      <trkpt lat="45.777757" lon="6.171439">
        <time>1970-01-01T00:00:00+00:00</time>
        <ele>1524.0</ele>
      </trkpt>
      <trkpt lat="45.776959" lon="6.171411">
        <time>1970-01-01T00:00:00+00:00</time>
        <ele>1534.0</ele>
      </trkpt>
      <trkpt lat="45.777023" lon="6.171554">
        <time>1970-01-01T00:00:00+00:00</time>
        <ele>1537.0</ele>
      </trkpt>
      <trkpt lat="45.776638" lon="6.171809">
        <time>1970-01-01T00:00:00+00:00</time>
        <ele>1533.0</ele>
      </trkpt>
      <trkpt lat="45.77634" lon="6.171636">
        <time>1970-01-01T00:00:00+00:00</time>
        <ele>1551.0</ele>
      </trkpt>
      <trkpt lat="45.775398" lon="6.171416">
        <time>1970-01-01T00:00:00+00:00</time>
        <ele>1573.0</ele>
      </trkpt>
      <trkpt lat="45.775159" lon="6.171415">
        <time>1970-01-01T00:00:00+00:00</time>
        <ele>1572.0</ele>
      </trkpt>
      <trkpt lat="45.775032" lon="6.171292">
        <time>1970-01-01T00:00:00+00:00</time>
        <ele>1583.0</ele>
      </trkpt>
      <trkpt lat="45.774794" lon="6.171251">
        <time>1970-01-01T00:00:00+00:00</time>
        <ele>1588.0</ele>
      </trkpt>
      <trkpt lat="45.774322" lon="6.17109">
        <time>1970-01-01T00:00:00+00:00</time>
        <ele>1595.0</ele>
      </trkpt>
      <trkpt lat="45.774322" lon="6.17109">
        <time>1970-01-01T00:00:00+00:00</time>
        <ele>1595.0</ele>
      </trkpt>
      <trkpt lat="45.774794" lon="6.171251">
        <time>1970-01-01T00:00:00+00:00</time>
        <ele>1588.0</ele>
      </trkpt>
      <trkpt lat="45.775032" lon="6.171292">
        <time>1970-01-01T00:00:00+00:00</time>
        <ele>1583.0</ele>
      </trkpt>
      <trkpt lat="45.775159" lon="6.171415">
        <time>1970-01-01T00:00:00+00:00</time>
        <ele>1572.0</ele>
      </trkpt>
      <trkpt lat="45.775398" lon="6.171416">
        <time>1970-01-01T00:00:00+00:00</time>
        <ele>1573.0</ele>
      </trkpt>
      <trkpt lat="45.77634" lon="6.171636">
        <time>1970-01-01T00:00:00+00:00</time>
        <ele>1551.0</ele>
      </trkpt>
      <trkpt lat="45.776638" lon="6.171809">
        <time>1970-01-01T00:00:00+00:00</time>
        <ele>1533.0</ele>
      </trkpt>
      <trkpt lat="45.777023" lon="6.171554">
        <time>1970-01-01T00:00:00+00:00</time>
        <ele>1537.0</ele>
      </trkpt>
      <trkpt lat="45.776959" lon="6.171411">
        <time>1970-01-01T00:00:00+00:00</time>
        <ele>1534.0</ele>
      </trkpt>
      <trkpt lat="45.777757" lon="6.171439">
        <time>1970-01-01T00:00:00+00:00</time>
        <ele>1524.0</ele>
      </trkpt>
      <trkpt lat="45.778556" lon="6.17126">
        <time>1970-01-01T00:00:00+00:00</time>
        <ele>1498.0</ele>
      </trkpt>
      <trkpt lat="45.777763" lon="6.170712">
        <time>1970-01-01T00:00:00+00:00</time>
        <ele>1474.0</ele>
      </trkpt>
      <trkpt lat="45.778691" lon="6.170827">
        <time>1970-01-01T00:00:00+00:00</time>
        <ele>1470.0</ele>
      </trkpt>
      <trkpt lat="45.779228" lon="6.170922">
        <time>1970-01-01T00:00:00+00:00</time>
        <ele>1455.0</ele>
      </trkpt>
      <trkpt lat="45.78033" lon="6.170732">
        <time>1970-01-01T00:00:00+00:00</time>
        <ele>1422.0</ele>
      </trkpt>
      <trkpt lat="45.781122" lon="6.170624">
        <time>1970-01-01T00:00:00+00:00</time>
        <ele>1411.0</ele>
      </trkpt>
      <trkpt lat="45.781762" lon="6.170746">
        <time>1970-01-01T00:00:00+00:00</time>
        <ele>1411.0</ele>
      </trkpt>
      <trkpt lat="45.782612" lon="6.170794">
        <time>1970-01-01T00:00:00+00:00</time>
        <ele>1410.0</ele>
      </trkpt>
      <trkpt lat="45.78367" lon="6.171535">
        <time>1970-01-01T00:00:00+00:00</time>
        <ele>1424.0</ele>
      </trkpt>
      <trkpt lat="45.783918" lon="6.171754">
        <time>1970-01-01T00:00:00+00:00</time>
        <ele>1419.0</ele>
      </trkpt>
      <trkpt lat="45.784243" lon="6.172135">
        <time>1970-01-01T00:00:00+00:00</time>
        <ele>1414.0</ele>
      </trkpt>
      <trkpt lat="45.784463" lon="6.17228">
        <time>1970-01-01T00:00:00+00:00</time>
        <ele>1407.0</ele>
      </trkpt>
      <trkpt lat="45.785873" lon="6.17215">
        <time>1970-01-01T00:00:00+00:00</time>
        <ele>1377.0</ele>
      </trkpt>
      <trkpt lat="45.785548" lon="6.171786">
        <time>1970-01-01T00:00:00+00:00</time>
        <ele>1366.0</ele>
      </trkpt>
      <trkpt lat="45.785021" lon="6.171556">
        <time>1970-01-01T00:00:00+00:00</time>
        <ele>1356.0</ele>
      </trkpt>
      <trkpt lat="45.784652" lon="6.171019">
        <time>1970-01-01T00:00:00+00:00</time>
        <ele>1345.0</ele>
      </trkpt>
      <trkpt lat="45.784698" lon="6.171003">
        <time>1970-01-01T00:00:00+00:00</time>
        <ele>1341.0</ele>
      </trkpt>
      <trkpt lat="45.784857" lon="6.171129">
        <time>1970-01-01T00:00:00+00:00</time>
        <ele>1337.0</ele>
      </trkpt>
      <trkpt lat="45.784951" lon="6.171123">
        <time>1970-01-01T00:00:00+00:00</time>
        <ele>1335.0</ele>
      </trkpt>
      <trkpt lat="45.785086" lon="6.171064">
        <time>1970-01-01T00:00:00+00:00</time>
        <ele>1330.0</ele>
      </trkpt>
      <trkpt lat="45.785278" lon="6.171051">
        <time>1970-01-01T00:00:00+00:00</time>
        <ele>1327.0</ele>
      </trkpt>
      <trkpt lat="45.785682" lon="6.170847">
        <time>1970-01-01T00:00:00+00:00</time>
        <ele>1319.0</ele>
      </trkpt>
      <trkpt lat="45.785778" lon="6.170844">
        <time>1970-01-01T00:00:00+00:00</time>
        <ele>1319.0</ele>
      </trkpt>
      <trkpt lat="45.786041" lon="6.170788">
        <time>1970-01-01T00:00:00+00:00</time>
        <ele>1313.0</ele>
      </trkpt>
      <trkpt lat="45.786329" lon="6.170839">
        <time>1970-01-01T00:00:00+00:00</time>
        <ele>1307.0</ele>
      </trkpt>
      <trkpt lat="45.786501" lon="6.170933">
        <time>1970-01-01T00:00:00+00:00</time>
        <ele>1303.0</ele>
      </trkpt>
      <trkpt lat="45.786799" lon="6.171214">
        <time>1970-01-01T00:00:00+00:00</time>
        <ele>1297.0</ele>
      </trkpt>
      <trkpt lat="45.786862" lon="6.171311">
        <time>1970-01-01T00:00:00+00:00</time>
        <ele>1300.0</ele>
      </trkpt>
      <trkpt lat="45.786905" lon="6.17133">
        <time>1970-01-01T00:00:00+00:00</time>
        <ele>1299.0</ele>
      </trkpt>
      <trkpt lat="45.787001" lon="6.171338">
        <time>1970-01-01T00:00:00+00:00</time>
        <ele>1295.0</ele>
      </trkpt>
      <trkpt lat="45.787139" lon="6.171314">
        <time>1970-01-01T00:00:00+00:00</time>
        <ele>1290.0</ele>
      </trkpt>
      <trkpt lat="45.787412" lon="6.171185">
        <time>1970-01-01T00:00:00+00:00</time>
        <ele>1279.0</ele>
      </trkpt>
      <trkpt lat="45.787609" lon="6.171139">
        <time>1970-01-01T00:00:00+00:00</time>
        <ele>1274.0</ele>
      </trkpt>
      <trkpt lat="45.787899" lon="6.17118">
        <time>1970-01-01T00:00:00+00:00</time>
        <ele>1269.0</ele>
      </trkpt>
      <trkpt lat="45.788226" lon="6.171284">
        <time>1970-01-01T00:00:00+00:00</time>
        <ele>1262.0</ele>
      </trkpt>
      <trkpt lat="45.788581" lon="6.171475">
        <time>1970-01-01T00:00:00+00:00</time>
        <ele>1254.0</ele>
      </trkpt>
      <trkpt lat="45.788918" lon="6.171493">
        <time>1970-01-01T00:00:00+00:00</time>
        <ele>1244.0</ele>
      </trkpt>
      <trkpt lat="45.789034" lon="6.171528">
        <time>1970-01-01T00:00:00+00:00</time>
        <ele>1243.0</ele>
      </trkpt>
      <trkpt lat="45.789197" lon="6.17167">
        <time>1970-01-01T00:00:00+00:00</time>
        <ele>1243.0</ele>
      </trkpt>
      <trkpt lat="45.789573" lon="6.172349">
        <time>1970-01-01T00:00:00+00:00</time>
        <ele>1228.0</ele>
      </trkpt>
      <trkpt lat="45.789653" lon="6.172413">
        <time>1970-01-01T00:00:00+00:00</time>
        <ele>1225.0</ele>
      </trkpt>
      <trkpt lat="45.789831" lon="6.172499">
        <time>1970-01-01T00:00:00+00:00</time>
        <ele>1221.0</ele>
      </trkpt>
      <trkpt lat="45.789948" lon="6.172502">
        <time>1970-01-01T00:00:00+00:00</time>
        <ele>1217.0</ele>
      </trkpt>
      <trkpt lat="45.790164" lon="6.172561">
        <time>1970-01-01T00:00:00+00:00</time>
        <ele>1211.0</ele>
      </trkpt>
      <trkpt lat="45.79027" lon="6.172623">
        <time>1970-01-01T00:00:00+00:00</time>
        <ele>1210.0</ele>
      </trkpt>
      <trkpt lat="45.790783" lon="6.172808">
        <time>1970-01-01T00:00:00+00:00</time>
        <ele>1200.0</ele>
      </trkpt>
      <trkpt lat="45.790876" lon="6.172856">
        <time>1970-01-01T00:00:00+00:00</time>
        <ele>1199.0</ele>
      </trkpt>
      <trkpt lat="45.790955" lon="6.172928">
        <time>1970-01-01T00:00:00+00:00</time>
        <ele>1198.0</ele>
      </trkpt>
      <trkpt lat="45.791044" lon="6.172966">
        <time>1970-01-01T00:00:00+00:00</time>
        <ele>1197.0</ele>
      </trkpt>
      <trkpt lat="45.791138" lon="6.172987">
        <time>1970-01-01T00:00:00+00:00</time>
        <ele>1195.0</ele>
      </trkpt>
      <trkpt lat="45.791714" lon="6.172912">
        <time>1970-01-01T00:00:00+00:00</time>
        <ele>1181.0</ele>
      </trkpt>
      <trkpt lat="45.792032" lon="6.172666">
        <time>1970-01-01T00:00:00+00:00</time>
        <ele>1167.0</ele>
      </trkpt>
      <trkpt lat="45.792124" lon="6.172631">
        <time>1970-01-01T00:00:00+00:00</time>
        <ele>1166.0</ele>
      </trkpt>
      <trkpt lat="45.792215" lon="6.17266">
        <time>1970-01-01T00:00:00+00:00</time>
        <ele>1165.0</ele>
      </trkpt>
      <trkpt lat="45.792477" lon="6.172861">
        <time>1970-01-01T00:00:00+00:00</time>
        <ele>1163.0</ele>
      </trkpt>
      <trkpt lat="45.792593" lon="6.172974">
        <time>1970-01-01T00:00:00+00:00</time>
        <ele>1162.0</ele>
      </trkpt>
      <trkpt lat="45.792765" lon="6.173089">
        <time>1970-01-01T00:00:00+00:00</time>
        <ele>1159.0</ele>
      </trkpt>
      <trkpt lat="45.792859" lon="6.173062">
        <time>1970-01-01T00:00:00+00:00</time>
        <ele>1155.0</ele>
      </trkpt>
      <trkpt lat="45.793051" lon="6.172894">
        <time>1970-01-01T00:00:00+00:00</time>
        <ele>1144.0</ele>
      </trkpt>
      <trkpt lat="45.793332" lon="6.172802">
        <time>1970-01-01T00:00:00+00:00</time>
        <ele>1138.0</ele>
      </trkpt>
      <trkpt lat="45.793418" lon="6.172845">
        <time>1970-01-01T00:00:00+00:00</time>
        <ele>1139.0</ele>
      </trkpt>
      <trkpt lat="45.793524" lon="6.172977">
        <time>1970-01-01T00:00:00+00:00</time>
        <ele>1139.0</ele>
      </trkpt>
      <trkpt lat="45.793608" lon="6.173033">
        <time>1970-01-01T00:00:00+00:00</time>
        <ele>1138.0</ele>
      </trkpt>
      <trkpt lat="45.793653" lon="6.173046">
        <time>1970-01-01T00:00:00+00:00</time>
        <ele>1136.0</ele>
      </trkpt>
      <trkpt lat="45.793734" lon="6.172993">
        <time>1970-01-01T00:00:00+00:00</time>
        <ele>1134.0</ele>
      </trkpt>
      <trkpt lat="45.793874" lon="6.17299">
        <time>1970-01-01T00:00:00+00:00</time>
        <ele>1132.0</ele>
      </trkpt>
      <trkpt lat="45.794115" lon="6.173135">
        <time>1970-01-01T00:00:00+00:00</time>
        <ele>1132.0</ele>
      </trkpt>
      <trkpt lat="45.794508" lon="6.173325">
        <time>1970-01-01T00:00:00+00:00</time>
        <ele>1124.0</ele>
      </trkpt>
      <trkpt lat="45.794828" lon="6.17358">
        <time>1970-01-01T00:00:00+00:00</time>
        <ele>1115.0</ele>
      </trkpt>
      <trkpt lat="45.794916" lon="6.173631">
        <time>1970-01-01T00:00:00+00:00</time>
        <ele>1113.0</ele>
      </trkpt>
      <trkpt lat="45.795011" lon="6.173655">
        <time>1970-01-01T00:00:00+00:00</time>
        <ele>1111.0</ele>
      </trkpt>
      <trkpt lat="45.795148" lon="6.17358">
        <time>1970-01-01T00:00:00+00:00</time>
        <ele>1106.0</ele>
      </trkpt>
      <trkpt lat="45.795318" lon="6.17369">
        <time>1970-01-01T00:00:00+00:00</time>
        <ele>1106.0</ele>
      </trkpt>
      <trkpt lat="45.795454" lon="6.173741">
        <time>1970-01-01T00:00:00+00:00</time>
        <ele>1103.0</ele>
      </trkpt>
      <trkpt lat="45.795568" lon="6.173746">
        <time>1970-01-01T00:00:00+00:00</time>
        <ele>1100.0</ele>
      </trkpt>
      <trkpt lat="45.795746" lon="6.173711">
        <time>1970-01-01T00:00:00+00:00</time>
        <ele>1097.0</ele>
      </trkpt>
      <trkpt lat="45.795926" lon="6.17362">
        <time>1970-01-01T00:00:00+00:00</time>
        <ele>1093.0</ele>
      </trkpt>
      <trkpt lat="45.796118" lon="6.173583">
        <time>1970-01-01T00:00:00+00:00</time>
        <ele>1092.0</ele>
      </trkpt>
      <trkpt lat="45.796161" lon="6.173551">
        <time>1970-01-01T00:00:00+00:00</time>
        <ele>1091.0</ele>
      </trkpt>
      <trkpt lat="45.796286" lon="6.173347">
        <time>1970-01-01T00:00:00+00:00</time>
        <ele>1080.0</ele>
      </trkpt>
      <trkpt lat="45.796311" lon="6.173215">
        <time>1970-01-01T00:00:00+00:00</time>
        <ele>1074.0</ele>
      </trkpt>
      <trkpt lat="45.796367" lon="6.173108">
        <time>1970-01-01T00:00:00+00:00</time>
        <ele>1070.0</ele>
      </trkpt>
      <trkpt lat="45.796829" lon="6.172789">
        <time>1970-01-01T00:00:00+00:00</time>
        <ele>1060.0</ele>
      </trkpt>
      <trkpt lat="45.796956" lon="6.172682">
        <time>1970-01-01T00:00:00+00:00</time>
        <ele>1055.0</ele>
      </trkpt>
      <trkpt lat="45.797175" lon="6.172548">
        <time>1970-01-01T00:00:00+00:00</time>
        <ele>1049.0</ele>
      </trkpt>
      <trkpt lat="45.797439" lon="6.172217">
        <time>1970-01-01T00:00:00+00:00</time>
        <ele>1038.0</ele>
      </trkpt>
      <trkpt lat="45.797547" lon="6.172057">
        <time>1970-01-01T00:00:00+00:00</time>
        <ele>1034.0</ele>
      </trkpt>
      <trkpt lat="45.797608" lon="6.171738">
        <time>1970-01-01T00:00:00+00:00</time>
        <ele>1026.0</ele>
      </trkpt>
      <trkpt lat="45.797594" lon="6.171306">
        <time>1970-01-01T00:00:00+00:00</time>
        <ele>1020.0</ele>
      </trkpt>
      <trkpt lat="45.79759" lon="6.171272">
        <time>1970-01-01T00:00:00+00:00</time>
        <ele>1019.0</ele>
      </trkpt>
    </trkseg>
  </trk>
</gpx>
